Torna al catalogo

STARLINK-35692

AttivoComunicazioniVLEO
NORAD 66513·PAYLOAD·🇺🇸 United States

Lanciato Nov 15, 2025 da Cape Canaveral Space Force Station

Loading…

Prossimi Passaggi (prossime 24 ore)

TLE

AggiornatoSource: CelesTrak SupGP

Epoca: Sep 14, 2026, 23:11 UTC

1 66513C 25263AE  26257.96645833 -.00014771  00000+0 -53494-3 0  2571
2 66513  43.0038   1.9143 0001716 269.2946 121.2076 15.27588870    13

Traccia STARLINK-35692 in tempo reale con AllMySat

Download on the App Store